Prox-1
1 44339U 19036A   25127.63957910  .00012663  00000-0  16291-2 0  9998
2 44339  23.9973 278.0620 0007983  56.1484 303.9772 14.79280789313225
SONATE
1 44400U 19038Q   25127.21510022  .00164282  00000-0  86761-3 0  9997
2 44400  97.6946 150.0284 0003863  50.1062 310.0544 15.80156491324285
Taurus 1
1 44530U 19059C   25127.82041940  .00007211  00000-0  13407-2 0  9993
2 44530  98.6026 265.6762 0010827 137.4196 222.7847 14.65423245299145
Duchifat 3
1 44854U 19089C   25127.60552923  .00044841  00000-0  95899-3 0  9995
2 44854  36.9433 204.4189 0000862 353.8464   6.2281 15.43842442297848
TO-108
1 44881U 19093C   25127.82506358  .00001175  00000-0  14204-3 0  9999
2 44881  97.7929 204.1596 0013286 345.2080  14.8745 14.85532729291219
FloripaSat 1
1 44885U 19093G   25127.82370714  .00005144  00000-0  43900-3 0  9993
2 44885  97.8146 215.3685 0009849 317.3276  42.7181 14.98107475291848
RS-44
1 44909U 19096E   25126.85864176  .00000016  00000-0  20681-4 0  9990
2 44909  82.5211 249.6799 0217590  14.7267 346.0038 12.79740395250372
UPMSat 2
1 46276U 20061E   25127.15025390  .00063079  00000-0  65555-3 0  9990
2 46276  97.2463 200.5150 0001334 155.4722 204.6601 15.64421475260239
SALSAT
1 46495U 20068K   25127.49176997  .00008587  00000-0  37590-3 0  9998
2 46495  97.8582 104.0082 0009491 279.1572  80.8589 15.22269545253492
CubeSX-Sirius-HSE
1 47951U 21022V   25127.52891666  .00304498  00000-0  14675-2 0  9996
2 47951  97.4156  39.0701 0008848  96.2586 263.9691 15.81763083228600
CubeSX-HSE
1 47952U 21022W   25127.60721851  .00304281  00000-0  14318-2 0  9998
2 47952  97.4175  39.4100 0008100  94.4179 265.8015 15.82290189228635
GRBAlpha
1 47959U 21022AD  25127.65346854  .00269640  00000-0  13375-2 0  9997
2 47959  97.4161  39.5550 0008337  94.7975 265.4245 15.81228177227464
TUBIN
1 48900U 21059X   25127.79873316  .00041831  00000-0  56543-3 0  9992
2 48900  97.6735 294.4397 0002405 357.2196   2.9045 15.57638629214933
LEDSAT
1 49069U 21073D   25127.75508783  .00054642  00000-0  76670-3 0  9991
2 49069  97.3907 208.0279 0011893 193.3348 166.7594 15.56491767206328
CUTE
1 49263U 21088D   25127.74354401  .00031155  00000-0  64325-3 0  9996
2 49263  97.4524 203.0755 0007744  11.4488 348.6935 15.45769484199355
TeikyoSat 4
1 49396U 21102B   25127.49690217  .00002314  00000-0  15629-3 0  9998
2 49396  97.4136 167.1176 0010916 242.8005 117.2111 15.07498993191561
Z-Sat
1 49399U 21102E   25127.84267304  .00004349  00000-0  24146-3 0  9991
2 49399  97.3834 170.3479 0017352 212.6124 147.4038 15.14121313192020
KOSEN 1
1 49402U 21102H   25127.82212541  .00006457  00000-0  30344-3 0  9996
2 49402  97.3738 173.4998 0016024 187.4459 172.6541 15.19822160192317
HO-113
1 50466U 21131B   25127.84333221  .00000675  00000-0  22491-3 0  9991
2 50466  98.5086 217.3600 0003410 219.6142 140.4798 14.40773004176738
IRIS-A
1 51044U 22002BN  25127.71526739  .00287642  00000-0  10908-2 0  9996
2 51044  97.3232 206.6175 0005984 239.8608 120.2071 15.86905914184667
Foresail-1
1 52766U 22057AL  25127.34715511  .00190230  00000-0  95776-3 0  9998
2 52766  97.6042 275.5729 0002233 289.9538  70.1489 15.81144231164625
SNUGLITE 2
1 52899U 22065F   25127.32318855  .00001727  00000-0  34513-3 0  9996
2 52899  98.1638 269.6311 0007049 208.8289 151.2525 14.63128819151624
IO-117
1 53106U 22080B   25051.21822557 -.00000003  00000-0  00000+0 0  9995
2 53106  70.1434 106.3440 0008542  48.0089 312.1297  6.42557744 61200
UmKA 1 (RS40S)
1 57172U 23091G   25127.85054705  .00006149  00000-0  33213-3 0  9993
2 57172  97.5609 183.4076 0016173  89.3360 270.9725 15.14971110102528
CubeBel-2 (EU11S)
1 57175U 23091K   25127.89674281  .00009805  00000-0  47511-3 0  9995
2 57175  97.5610 184.4085 0014043  97.8217 262.4611 15.18656574102598
VERONIKA
1 58261U 23174F   25127.80793406  .00094297  00000-0  10587-2 0  9997
2 58261  97.4138 212.2274 0007152 177.0207 183.1094 15.62298341 83553
ENSO
1 58470U 23185J   25127.86379783  .00045902  00000-0  74969-3 0  9999
2 58470  97.3761 202.0178 0008672 192.6858 167.4178 15.52392205 79959
EIRSAT-1
1 58472U 23185L   25127.82741174  .00075411  00000-0  88691-3 0  9999
2 58472  97.3724 203.3877 0007812 194.1778 165.9261 15.61152400 80042
SONATE-2
1 59112U 24043Q   25126.86170951  .00019216  00000-0  57348-3 0  9993
2 59112  97.5083 257.4027 0010915 229.5176 130.5116 15.34616987 65162
MO-122
1 60209U 24125G   25127.14363000  .00019644  00000-0  57865-3 0  9993
2 60209  97.2839 339.1585 0017594 255.2172 104.7122 15.34924327 46828
GRBBeta
1 60237U 24128C   25126.66113423  .00004330  00000-0  33324-3 0  9995
2 60237  61.9914 197.7924 0049046  49.8005 310.7363 15.02333150 45104
Curium One
1 60242U 24128H   25126.55154644  .00006946  00000-0  49402-3 0  9998
2 60242  61.9814 196.9425 0049008  45.3725 315.1347 15.04592146 45110
ROBUSTA-3A
1 60243U 24128J   25126.54411591  .00007373  00000-0  53021-3 0  9992
2 60243  61.9885 197.6863 0047472  43.1521 317.3275 15.04169404 45106
CatSat
1 60246U 24125J   25127.14048340  .00010843  00000-0  36973-3 0  9990
2 60246  97.2631 338.7387 0042465 211.2809 148.5904 15.29649794 44871
HYPERVIEW-1G (RS66S)
1 61772U 24199AP  25127.88252096  .00017730  00000-0  53662-3 0  9998
2 61772  97.3588 356.8324 0012186 314.7004  45.3246 15.34170877 71941
AO-123
1 61781U 24199AY  25127.83942533  .00007071  00000-0  26147-3 0  9990
2 61781  97.3601 356.0019 0014604 318.9125  41.1014 15.27913236 71883
ZIMSAT 2
1 61783U 24199BA  25127.90424936  .00031682  00000-0  83485-3 0  9995
2 61783  97.3573 357.2436 0012060 312.0716  47.9503 15.38384904 75128
HADES-R (SO-124)
1 62690U 25009CK  25126.75251217  .00036942  00000-0  13998-2 0  9991
2 62690  97.4098 207.7506 0004214 187.6534 172.4642 15.26792588 16987
HYDRA-T
1 62692U 25009CM  25126.74295957  .00036201  00000-0  13635-2 0  9997
2 62692  97.4100 207.7622 0004161 183.6824 176.4385 15.26996104 16989
JINJUSat 1B
1 63210U 25052A   25127.68562846  .00012376  00000-0  57878-3 0  9995
2 63210  97.4457  22.2373 0006552  82.3961 277.8018 15.19890733  8250
NUSHSAT 1
1 63211U 25052B   25127.68453341  .00013509  00000-0  62880-3 0  9993
2 63211  97.4450  22.2327 0006602  86.1261 274.0729 15.20032221  8254
TEVEL2-4
1 63213U 25052D   25127.69208964  .00013252  00000-0  62165-3 0  9996
2 63213  97.4367  22.1672 0005742  97.6449 262.5438 15.19772048  8259
TEVEL2-5
1 63214U 25052E   25127.69233823  .00013086  00000-0  61414-3 0  9990
2 63214  97.4368  22.1669 0005729  97.7522 262.4363 15.19758456  8258
TEVEL2-6
1 63215U 25052F   25127.69361241  .00013371  00000-0  62813-3 0  9998
2 63215  97.4369  22.1660 0005800  98.1358 262.0535 15.19719616  8255
TEVEL2-1
1 63217U 25052H   25126.64651583  .00014151  00000-0  66895-3 0  9996
2 63217  97.4342  21.1033 0005728 109.8115 250.3737 15.19489605  8099
TEVEL2-2
1 63218U 25052J   25127.83212814  .00011443  00000-0  54135-3 0  9994
2 63218  97.4345  22.2703 0005888 107.4333 252.7546 15.19515440  8273
TEVEL2-3
1 63219U 25052K   25127.89801149  .00011519  00000-0  54492-3 0  9996
2 63219  97.4346  22.3352 0005881 107.3288 252.8590 15.19513983  8288
TEVEL2-8
1 63237U 25052AD  25127.67430340  .00012315  00000-0  60187-3 0  9996
2 63237  97.4404  22.0661 0010106 122.4040 237.8173 15.18333791  8245
TEVEL2-9
1 63238U 25052AE  25127.67548621  .00012252  00000-0  59966-3 0  9992
2 63238  97.4406  22.0657 0010172 122.4252 237.7967 15.18285954  8248
TEVEL2-7
1 63239U 25052AF  25127.67668481  .00012162  00000-0  59586-3 0  9998
2 63239  97.4407  22.0633 0010172 122.7435 237.4780 15.18250368  8241
HYDRA-W
1 63490U 25052BL  25127.68061376  .00027546  00000-0  12212-2 0  9994
2 63490  97.4356  22.1777 0014597 121.9879 238.2778 15.21476304  8252
HADES-ICM
1 63492U 25052BN  25127.68738874  .00027000  00000-0  12089-2 0  9997
2 63492  97.4362  22.1715 0014855 125.6616 234.6005 15.21139036  8251
